Location: Chochol
(49.7771°N, 14.9780°E)
Time: 09:22:47
(UTC+00:00)

COSMOS 2455 - Pass Details

Date: 09 April 2020
Orbit: 900 x 910 km, 67.1° (Epoch: 24 May)

Event Time Altitude Azimuth Distance (km) Brightness Sun altitude
Rises 20:01:51 0° 318° (NW) 3,547 7.5 -20.3°
Reaches altitude 10° 20:04:40 10° 308° (NW) 2,602 6.4 -20.6°
Maximum altitude 20:09:44 29° 250° (WSW) 1,608 4.4 -21.2°
Enters shadow 20:13:57 14° 198° (SSW) 2,333 4.7 -21.7°
